Regional Weather Roundup
Issued by NWS

Home | Current Version | Previous Version | Graphics & Text | Print | Product List | Glossary On
Versions: 1 2 3 4 5 6 7 8 9 10 11 12 13 14 15 16 17 18 19 20 21 22 23 24 25 26 27 28 29 30 31 32 33 34 35 36 37 38 39 40 41 42 43 44 45 46 47 48 49 50
193
ASUS43 KIND 112109
RWRIN

WEATHER ROUNDUP FOR INDIANA
NATIONAL WEATHER SERVICE INDIANAPOLIS IN
400 PM EST THU FEB 11 2016

NOTE: "FAIR" INDICATES FEW OR NO CLOUDS BELOW 12,000 FEET WITH NO
SIGNIFICANT WEATHER AND/OR OBSTRUCTIONS TO VISIBILITY.

* - STATION DOES NOT REPORT WEATHER SUCH AS PRECIPITATION OR FOG.

+ - STATION NOT QUALITY CONTROLLED BY THE NATIONAL WEATHER SERVICE.
    USE DATA WITH CAUTION...ESPECIALLY DEWPOINT AND RELATIVE
    HUMIDITY OBSERVATIONS.

INZ001>003-010>013-019-020-112200-
NORTHWEST INDIANA

CITY           SKY/WX    TMP DP  RH WIND       PRES   REMARKS
GARY /AIRPORT/ MOSUNNY   23   3  42 N6        30.30S WCI  16
KNOX *+        MOSUNNY   21   9  58 NW10      30.28S WCI  10
LA PORTE +     MOSUNNY   22  11  62 W8        30.28S WCI  12
MICHIGAN CITY+ PTSUNNY   19   9  63 NW6       30.30R WCI  11
MONTICELLO +   SUNNY     23   0  37 W7        30.29R WCI  14
RENSSELAER +   SUNNY     25  -4  28 W3        30.29R
VALPARAISO     MOSUNNY   21   8  57 VRB5      30.28S WCI  15

$$

LMZ046-743>745-112200-
SOUTHERN LAKE MICHIGAN

STATION/POSITION TIME  TEMP    WIND        PRES    WAVE
                       AIR SEA DIR/SP/G            HT
                 (UTC) (F)     (DEG/KT/KT) (MB)    (FT)
BURNS HARBOR     2000   18     310/  8/ 18 1026.4F
MICHIGAN CITY    2000   19     270/ 12/ 13   N/A

$$

INZ004-005-014>016-021>024-112200-
NORTH CENTRAL INDIANA

CITY           SKY/WX    TMP DP  RH WIND       PRES   REMARKS
ELKHART        CLOUDY    21   7  53 NW12      30.26R WCI   9
GOSHEN         CLOUDY    20   9  62 NW13      30.25S WCI   7
LOGANSPORT +   MOSUNNY   23   5  46 NW5       30.29R WCI  17
PERU/GRISSOM   MOSUNNY   21   6  50 NW6       30.25S WCI  14
ROCHESTER +    MOSUNNY   25   5  42 W6        30.27S WCI  18
SOUTH BEND     CLOUDY    19   9  65 W14       30.27R WCI   6
WARSAW +       CLOUDY    23  14  68 W12       30.26R WCI  12

$$

INZ006>009-017-018-025>027-112200-
NORTHEAST INDIANA

CITY           SKY/WX    TMP DP  RH WIND       PRES   REMARKS
ANGOLA *+      PTSUNNY   19   9  63 NW7       30.22S WCI  10
AUBURN +       PTSUNNY   23   9  54 W12       30.25R WCI  12
FORT WAYNE     PTSUNNY   22   6  50 W12       30.26S WCI  10
HUNTINGTON +   CLOUDY    20   4  49 W3        30.27R

$$

INZ028-029-035-036-043>045-051>053-112200-
WEST CENTRAL INDIANA

CITY           SKY/WX    TMP DP  RH WIND       PRES   REMARKS
GREENCASTLE +  SUNNY     25   3  39 E5        30.28S WCI  19
LAFAYETTE      SUNNY     23   2  40 NW5       30.30R WCI  17
TERRE HAUTE    SUNNY     26   9  48 VRB6      30.30S WCI  19

$$

INZ030>032-037>040-046>048-054>057-064-065-112200-
CENTRAL INDIANA

CITY           SKY/WX    TMP DP  RH WIND       PRES   REMARKS
ANDERSON       MOSUNNY   21   9  58 N12       30.29R WCI   9
COLUMBUS       SUNNY     23   9  54 NE7       30.30R WCI  15
FISHERS *+     SUNNY     23  12  63 NW6       30.27R WCI  16
FRANKFORT +    SUNNY     26  -5  26 W5        30.29R WCI  21
GREENWOOD *+   MOSUNNY   25  10  54 S6        30.28R WCI  18
INDIANAPOLIS   MOSUNNY   25   5  42 VRB3      30.27R
-EAGLE CREEK   SUNNY     25   7  46 N5        30.27R WCI  19
KOKOMO *+      MOSUNNY   23   7  50 N8        30.27S WCI  14
MARION +       MOSUNNY   21   1  41 NW5       30.27S WCI  14
MT COMFORT *+  PTSUNNY   25   9  50 N6        30.27R WCI  18
SHELBYVILLE    SUNNY     23   7  50 SE3       30.27S
ZIONSVILLE +   PTSUNNY   23   9  54 W6        30.27R WCI  16

$$

INZ033-034-041-042-049-050-058-059-112200-
EAST CENTRAL INDIANA

CITY           SKY/WX    TMP DP  RH WIND       PRES   REMARKS
MUNCIE         PTSUNNY   21   9  59 N7        30.26S WCI  12

$$

INZ060-061-067>069-081>083-085>088-112200-
SOUTHWEST INDIANA

CITY           SKY/WX    TMP DP  RH WIND       PRES   REMARKS
EVANSVILLE     SUNNY     33  11  39 N9        30.29S WCI  25
HUNTINGBURG *+ SUNNY     30  10  43 N7        30.29R WCI  23
WASHINGTON +   SUNNY     28   9  44 CALM      30.30R

$$

INZ062-063-066-070>080-084-089>092-112200-
SOUTH CENTRAL AND SOUTHEAST INDIANA

CITY           SKY/WX    TMP DP  RH WIND       PRES   REMARKS
BEDFORD +      SUNNY     28   9  43 N5        30.27  WCI  23
BLOOMINGTON    SUNNY     27   6  41 NE5       30.26S WCI  22
MADISON *+     SUNNY     27   7  43 CALM      30.29R
NORTH VERNON + SUNNY     23   5  46 CALM      30.29S
SEYMOUR +      SUNNY     28  10  47 NE8       30.29R WCI  20

$$





USA.gov is the U.S. government's official web portal to all federal, state and local government web resources and services.